OneWeb SL0150

operational
NORAD ID: 48047 Int'l Des: 2021-025 Owner: ONEWEBN Country: UK Constellation: oneweb
LEOCIRCULARPOLARONEWEB_TYPE

Über OneWeb SL0150

Beschreibung wird geladen...

Live-Position

3D-Globus wird geladen...

Nächste Überflüge

Höhenverlauf

Altitude vs Time

uPlot chart will show altitude changes over time

Zweizeiliger Elementsatz

1 48047U 21025F 25353.24761974 .00000182 00000-0 46233-3 0 9993
2 48047 87.8985 355.9673 0001729 96.3253 263.8073 13.13467760229926
Epoch: 19. Dez. 2025 • Age: 13 hours

Aktueller Status

Höhe 1212.0 km
Geschwindigkeit 7.25 km/s
Subsatellitenpunkt 21.72°N, 14.69°W
Startdatum 25. März 2021
Alter 4.7 years
Typ internet

Technische Details

Klassifizierung Payload
Masse 148.00 kg
Trockenmasse 140.00 kg
Gesamtmasse 148.00 kg
Länge 1.30 m
Durchmesser 1.00 m
Spannweite 5.00 m
Form Trapezoid+2 pan
Hersteller ONEWUS
Bus-Typ ARROW
Phasenstatus In Orbit
Besitzer/Staat ONEWEBN/UK

Große Konstellationen

Loading constellations...